Location: Lake Arresoe
(56.0000°N, 12.5000°E)
Time: 11:30:08
(UTC+02:00)

Cosmos 1674 - Pass Details

Date: 21 August 2020
Orbit: 495 x 517 km, 82.5° (Epoch: 23 September)

Event Time Altitude Azimuth Distance (km) Brightness Sun altitude
Rises 02:32:22 0° 331° (NNW) 2,610 6.9 -20.0°
Reaches altitude 10° 02:36:01 10° 294° (WNW) 1,723 5.4 -19.8°
Enters shadow 02:36:53 11° 281° (W) 1,671 5.2 -19.8°
